This is the latest recevied weather packets stored in our database for station/object KB4RFE. If no packets are shown the sender has not sent any weather packets the latest 10 day(s).
| Time | Temp. | Humidity | Pressure | Rain* | Wind** | Luminosity | Snow |
|---|---|---|---|---|---|---|---|
| 1777904485 | 22.78° C | 53% | 1021.1 hPa | 0 mm | - | 612 W/m² | - |
| 1777904181 | 22.22° C | 53% | 1021.1 hPa | 0 mm | - | 595 W/m² | - |
| 1777903879 | 22.22° C | 52% | 1021.2 hPa | 0 mm | - | 582 W/m² | - |
| 1777903576 | 22.22° C | 55% | 1021 hPa | 0 mm | - | 566 W/m² | - |
| 1777903271 | 22.22° C | 55% | 1021.1 hPa | 0 mm | - | 552 W/m² | - |
| 1777902968 | 22.22° C | 57% | 1021.2 hPa | 0 mm | - | 534 W/m² | - |
| 1777902665 | 21.67° C | 57% | 1021.3 hPa | 0 mm | - | 514 W/m² | - |
| 1777902362 | 21.67° C | 58% | 1021.3 hPa | 0 mm | - | 493 W/m² | - |
| 1777902059 | 21.67° C | 59% | 1021.3 hPa | 0 mm | - | 475 W/m² | - |
| 1777901757 | 21.11° C | 59% | 1021.4 hPa | 0 mm | - | 452 W/m² | - |
| 1777901454 | 21.11° C | 64% | 1021.3 hPa | 0 mm | - | 431 W/m² | - |
| 1777901152 | 20.56° C | 66% | 1021.4 hPa | 0 mm | - | 410 W/m² | - |
| 1777900850 | 20.56° C | 68% | 1021.5 hPa | 0 mm | - | 391 W/m² | - |
| 1777900546 | 20° C | 69% | 1021.3 hPa | 0 mm | - | 379 W/m² | - |
| 1777900243 | 19.44° C | 73% | 1021.4 hPa | 0 mm | - | 354 W/m² | - |
| 1777899940 | 18.89° C | 78% | 1021.2 hPa | 0.51 mm | - | 327 W/m² | - |
| 1777899637 | 17.78° C | 78% | 1021.5 hPa | 0.51 mm | - | 174 W/m² | - |
| 1777899334 | 17.78° C | 80% | 1021.3 hPa | 0 mm | - | 107 W/m² | - |
| 1777899032 | 17.22° C | 82% | 1021.3 hPa | 0 mm | - | 61 W/m² | - |
| 1777898728 | 16.67° C | 86% | 1021.2 hPa | 0 mm | - | 62 W/m² | - |
| 1777898426 | 16.67° C | 91% | 1021.1 hPa | 0 mm | - | 57 W/m² | - |
| 1777898124 | 16.11° C | 94% | 1021.2 hPa | 0.51 mm | - | 54 W/m² | - |
| 1777897820 | 15.56° C | 96% | 1021 hPa | 0.51 mm | - | 53 W/m² | - |
| 1777897516 | 15° C | 97% | 1021.2 hPa | 0 mm | - | 52 W/m² | - |
| 1777897212 | 15° C | 97% | 1021.1 hPa | 0 mm | - | 51 W/m² | - |
* Rain latest hour (hover to see other rain measurements)
** Current wind speed in m/s (hover to see current wind gust speed)